CZ-6A DEB, 54585

Orbit data source: Space-Track

CZ-6A DEB, 54585 is space debris in SSO originally from a launch on Fri, 11 Nov 2022 UTC launched from the Taiyaun Space Center, China (TSC). Debris objects in space refer to the collection of defunct objects orbiting the Earth. Examples of debris include non-operational satellites, rocket bodies, and fragments generated from explosions, collisions, or faulty payload assembly.

Loading next visibility...
Identifier
54585, 2022-151MM
Orbit
SSO
Country
Flag of CNCN / PRC
Related business
Manufacturer
SAST
Mission
Spacecraft
Bus & Motor
Unknown
Mass
Unknown
Launch date (UTC)
2022-11-11 (3 years ago)
Launch vehicle
Unknown
Launch site
Taiyaun Space Center, China (TSC)
Object type
Payload
Rocket body
Debris
Shape & HBR
Unknown shape, 0.1 m
Radar Cross Section
Small (<0.1 m²)

Expand to show TLE details & history
Last TLE update: 10 hours ago

TLE from 10 hours ago
0 CZ-6A DEB
1 54585U 22151MM  25351.63231111  .00043568  00000-0  39141-2 0  9998
2 54585  98.6446  56.6011 0044489  91.0895 269.5420 14.94771698 92742
Epoch: 2025-12-17T15:10Z
TLE epoch observation values (Epoch: 2025-12-17T15:10:31.679Z)
Latitude
-0.00008°
Longitude
102.46973°
Altitude
586.485 km
Speed
7.567 km/s
True Right ascension
03h 46m 24s
True Declination
0° 00' 00"
Sunlit
Object was in full shadow at epoch
Visualization orbit readout
Latitude
Unknown
Longitude
Unknown
Altitude
Unknown
Speed
Unknown
Apparent Right ascension
Unknown
Apparent Declination
Unknown
Sunlit
N/A
Visualization observer readout
Local Sidereal Time
00:26:26
Azimuth
Unknown
Elevation
Unknown
Doppler factor
Unknown
Orbital elements
Apogee altitude
611.094 km
Perigee altitude
549.181 km
Semi-major axis
6,958.275 km
Eccentricity
0.00445
Inclination
98.6446°
RAAN
56.6011°
Arg. of periapsis
91.0895°
True anomaly
269.03224°
Mean anomaly
269.542°
Eccentric anomaly
269.28712°
Mean motion
3.7393 °/min
Orbital period
96.27 mins
BSTAR
0.0039141
Loading maneuver chart data...
Computing Atmospheric mass density...
Loading historical data...
Loading historical data...
Loading historical data...
Loading historical data...
Loading historical data...
Loading historical data...
Loading historical data...

Documentation

Showing up to 5 results
|